Wind_Speed
29 29 32 35 34 33 33 32 30 23 19 21 22 26 23 20 24 21 19 25 27 25 23 23 22 22 23 20 21 19 15 18 18 12 15 19 20 19 19 19 19 18 14 13 11 9 10 8 7 7 6 7 9 9 10 12 14 13 14 15 15 16 16 17 16 14 12 10 9 8 7 7 7 6 5 5 4 3 2 3 4 5 6 6 7 8
30 33 35 36 32 28 29 28 29 24 18 19 22 27 25 21 22 18 16 22 25 23 21 22 21 20 23 21 16 13 16 20 21 16 16 19 21 21 20 21 19 18 15 13 10 7 6 5 6 7 7 8 7 8 9 11 13 14 14 14 15 15 16 16 15 12 10 10 9 8 8 7 7 6 5 3 2 1 2 4 5 6 7 8 8 9
33 37 35 32 29 25 26 27 28 24 19 18 19 24 26 23 22 18 16 20 23 23 20 21 20 18 21 20 16 16 17 19 20 20 18 18 21 23 22 22 21 20 19 15 13 12 8 5 7 7 7 9 9 10 11 13 14 14 14 14 14 15 15 15 13 9 7 8 9 8 8 7 6 5 3 2 2 2 3 5 6 7 8 9 9 10
36 37 32 28 27 26 25 28 27 22 20 19 18 22 26 24 21 20 18 20 22 21 17 17 18 19 20 17 17 18 18 19 20 20 19 18 19 21 20 20 19 20 18 16 16 17 13 9 9 8 8 10 11 12 12 12 14 14 15 16 15 15 15 13 11 9 7 7 8 7 6 6 5 4 3 3 3 4 4 5 7 8 8 9 10 10
32 29 28 26 26 26 25 28 29 23 20 22 20 20 23 22 20 18 18 20 22 21 19 16 14 17 21 17 18 19 18 20 19 20 21 18 17 18 19 19 19 18 16 16 18 17 17 16 14 11 10 10 11 11 10 12 13 14 15 15 15 13 11 10 7 7 7 7 8 7 6 6 5 4 3 4 5 5 6 6 7 8 8 9 10 10
28 23 26 28 27 28 26 28 31 25 20 23 23 20 21 21 20 18 18 20 22 22 22 20 12 12 20 20 20 21 20 20 19 22 24 20 19 20 20 20 20 18 17 18 19 17 18 17 14 12 10 10 10 10 10 12 12 11 12 12 11 10 8 7 5 5 6 7 8 8 7 6 5 4 4 5 6 6 7 7 8 8 9 9 10 11
26 23 27 29 29 29 26 26 30 27 22 21 23 23 19 18 22 21 22 23 23 22 22 23 16 11 16 18 19 22 22 21 20 21 23 22 21 21 21 22 21 20 18 18 18 16 16 16 14 11 9 9 11 11 11 11 10 10 10 10 9 8 7 6 5 5 6 7 8 7 6 6 5 5 5 6 7 8 9 9 9 9 9 10 11 12
27 26 29 30 30 30 28 26 27 28 24 18 20 23 16 15 22 23 24 24 22 20 20 24 23 16 14 17 20 22 21 21 22 20 20 21 20 21 22 22 22 21 19 18 17 15 16 16 15 13 9 9 10 9 9 9 10 11 12 12 11 10 10 9 9 8 8 9 9 8 8 7 7 7 6 7 8 10 11 11 11 10 11 12 12 13
27 29 30 30 30 29 29 26 24 27 25 17 17 22 17 14 18 20 22 23 20 19 19 23 24 18 14 16 20 23 23 23 23 22 21 21 20 20 21 21 21 20 19 18 16 16 17 16 15 13 10 8 8 9 10 11 12 13 15 14 13 12 11 11 11 11 11 11 11 10 10 9 9 9 9 9 10 11 12 13 13 13 13 14 14 15
25 27 27 28 29 27 27 24 21 27 25 15 15 21 19 15 17 19 21 21 20 18 19 22 24 18 13 17 22 23 26 26 23 23 22 21 21 21 20 22 22 20 19 19 19 20 20 17 15 12 9 8 9 11 13 15 16 16 16 15 14 13 12 12 12 12 12 13 13 12 12 11 11 11 12 12 12 13 13 14 14 15 15 16 16 16
21 22 24 27 28 24 24 23 21 27 24 13 16 20 19 17 17 18 20 21 17 15 19 22 24 21 14 16 25 26 26 27 25 24 22 21 22 22 21 22 22 19 18 19 23 24 21 18 15 13 11 9 10 12 14 16 17 16 16 15 14 13 12 13 13 13 14 14 15 14 14 14 14 15 15 15 15 15 15 15 15 16 17 18 18 18
20 23 24 26 27 23 23 24 22 26 24 15 18 21 19 18 18 17 19 20 14 11 18 22 23 23 17 16 24 27 26 26 27 26 25 24 24 23 22 23 22 19 19 22 25 24 22 20 17 15 15 13 11 13 15 15 15 15 15 15 15 15 14 14 14 15 16 16 16 17 17 17 18 18 18 18 18 18 17 17 17 18 19 19 20 20
22 25 26 24 25 25 25 25 23 27 26 18 21 24 20 16 14 13 14 15 13 12 17 22 23 22 21 20 19 22 24 24 25 27 27 25 23 23 24 25 24 22 22 26 27 24 22 21 19 18 18 17 14 15 16 16 15 15 15 14 14 15 15 15 16 16 17 17 18 19 20 20 21 21 21 21 21 21 20 20 19 19 20 21 21 22
21 21 27 26 27 27 27 27 27 30 30 24 25 27 20 13 10 9 10 10 11 14 16 21 23 20 19 20 16 17 21 22 23 26 26 23 22 24 25 26 26 24 23 28 28 25 24 22 20 20 20 19 17 17 17 17 16 15 13 12 13 14 15 16 17 18 19 20 21 22 23 23 23 24 24 24 24 23 23 23 22 21 21 22 22 22
20 18 28 32 29 29 28 27 26 28 30 27 25 25 22 17 11 9 10 10 11 15 16 16 17 17 15 12 13 15 18 18 21 24 23 22 22 23 22 25 27 25 25 30 29 27 27 24 23 23 21 21 20 19 18 17 17 17 13 11 13 15 16 17 18 20 22 23 24 24 25 25 26 26 26 26 26 26 26 25 24 23 22 23 22 22
21 18 26 29 26 28 28 25 23 24 26 26 24 24 24 22 17 12 10 9 11 13 15 14 13 13 10 10 15 16 16 18 20 22 23 24 25 23 23 26 27 26 29 31 29 28 29 27 25 25 24 22 21 20 19 18 17 17 16 14 14 16 17 18 19 21 23 25 26 27 27 28 28 27 27 27 27 27 27 26 25 23 23 23 22 21
21 18 26 27 23 28 30 24 22 24 22 23 26 26 24 22 19 15 8 6 8 9 11 15 15 13 9 9 15 17 16 19 20 22 26 26 25 24 26 28 26 26 30 31 29 29 30 29 27 27 26 25 23 21 19 18 17 17 17 16 15 17 17 18 19 20 21 23 25 26 28 29 29 28 28 27 26 26 25 25 24 23 22 21 20 19
20 18 26 29 24 27 31 24 21 23 21 22 27 24 20 21 19 16 11 7 8 9 10 16 19 17 13 12 17 19 18 20 22 24 27 25 24 24 27 28 26 26 29 30 29 29 30 30 28 27 27 27 26 24 20 19 19 19 18 17 17 17 16 16 16 17 18 19 21 22 24 25 26 27 26 25 24 23 23 23 22 21 20 19 18 18
22 19 22 28 25 24 30 26 22 24 24 21 23 22 20 20 19 17 13 10 10 8 8 15 19 19 17 16 21 23 22 23 24 27 27 24 25 27 28 29 28 27 29 30 31 31 30 29 29 28 28 28 27 25 22 21 21 21 20 18 18 18 16 17 16 16 17 17 18 19 20 22 22 22 22 22 22 21 21 21 20 19 18 17 17 17
24 19 19 25 24 23 29 31 26 26 28 21 18 23 24 19 17 18 15 12 12 8 7 12 14 15 18 19 20 23 24 25 26 27 26 24 26 28 29 30 30 29 30 31 32 32 31 29 29 29 29 29 29 26 25 24 23 24 23 20 19 19 18 18 17 17 18 18 18 18 18 19 19 18 18 18 19 19 18 18 17 16 16 16 16 17
25 19 18 23 25 25 30 33 29 27 30 24 18 23 25 19 16 17 16 15 14 10 7 8 9 12 15 15 17 21 23 25 26 26 24 24 26 28 30 32 32 32 31 32 32 32 32 32 32 32 31 31 31 29 26 25 26 26 25 21 20 20 20 19 18 18 18 18 18 16 16 16 16 16 16 16 16 16 15 15 15 15 15 15 16 16
23 19 19 25 28 29 29 30 28 25 27 26 20 22 24 22 20 15 14 17 17 13 10 8 8 10 13 13 14 18 22 24 26 25 24 25 25 25 29 33 34 34 33 33 34 34 34 34 35 35 34 33 32 30 28 28 28 27 25 22 22 22 21 19 18 18 18 17 16 14 13 13 14 14 14 14 14 13 13 13 13 14 14 14 15 16
22 17 19 24 26 25 23 24 26 24 24 25 23 21 20 23 23 16 12 16 18 16 13 11 9 8 15 20 17 16 20 23 22 24 27 28 25 22 25 31 35 36 35 35 36 36 36 35 35 35 36 35 34 32 30 30 30 29 26 24 22 21 20 19 18 18 18 16 14 13 12 12 12 12 12 12 12 12 12 12 12 13 13 14 15 15
22 17 19 22 20 20 20 21 25 25 23 25 27 24 20 21 23 19 14 13 16 17 15 12 7 7 14 20 19 15 16 20 22 25 29 28 24 21 22 28 34 36 37 37 37 38 37 35 35 35 35 35 35 33 31 31 32 30 27 24 22 20 19 19 18 18 17 15 13 12 11 11 11 11 11 11 11 11 11 12 12 12 13 14 14 14
22 19 20 20 15 16 19 18 23 28 26 24 27 27 23 21 20 20 17 13 13 16 17 14 7 8 13 15 18 18 17 20 24 26 28 26 22 21 21 24 30 34 37 39 38 38 37 35 35 34 34 35 34 32 30 31 33 31 26 23 21 20 19 18 19 18 16 14 13 12 11 10 10 10 10 11 11 11 11 11 12 12 13 13 13 13
21 20 21 20 13 12 15 14 20 29 28 22 22 26 27 24 21 20 19 17 14 13 18 17 9 11 17 17 19 22 20 23 27 26 26 26 22 22 23 23 26 31 35 38 38 38 37 36 35 33 33 33 32 30 30 32 33 30 24 21 20 19 19 19 19 17 15 14 12 11 10 10 10 10 10 10 10 11 11 11 11 12 12 12 11 11
19 18 21 21 17 16 16 15 18 23 25 23 21 23 27 27 24 20 20 20 16 11 14 17 11 13 17 18 20 23 22 23 26 26 26 26 24 24 25 24 25 28 30 33 35 36 36 34 33 32 32 31 30 28 29 32 32 27 22 20 20 20 19 19 18 17 15 13 12 11 10 10 10 10 10 10 10 11 10 10 10 10 10 9 9 8
16 17 20 20 18 17 15 17 21 22 24 26 23 22 25 27 25 23 21 19 16 13 12 14 13 12 13 15 17 21 21 19 21 24 26 26 25 24 24 24 25 26 27 29 30 32 33 32 32 32 32 30 28 28 30 32 30 24 21 21 20 20 20 19 18 16 14 13 12 11 11 10 10 10 10 10 10 10 10 9 9 9 8 7 6 5
14 16 20 18 16 12 8 14 21 22 23 25 25 23 22 24 25 25 22 18 16 16 13 11 14 14 13 14 16 18 16 15 16 18 20 22 21 21 22 22 23 24 26 27 29 30 31 31 32 32 31 29 29 29 31 31 26 21 21 21 21 20 20 19 18 16 14 13 12 12 11 11 11 10 10 10 10 9 9 8 8 7 6 5 4 3
13 14 18 17 15 11 5 8 15 18 19 21 24 25 24 24 25 24 23 20 18 17 14 10 11 14 15 16 18 17 15 15 16 16 15 16 16 16 17 18 20 23 25 27 29 31 32 32 33 32 30 31 30 29 29 27 22 21 22 22 21 20 20 19 18 16 15 14 13 13 12 11 11 10 10 10 9 9 8 7 6 5 4 4 3 3
14 12 15 16 16 14 11 9 12 15 16 18 20 23 24 24 24 24 24 22 20 19 16 12 10 12 13 13 16 19 19 20 20 19 19 20 19 19 19 17 18 21 24 27 30 32 33 33 32 31 31 31 29 26 26 25 22 22 23 22 21 21 20 19 18 16 16 15 13 13 12 11 11 11 10 9 9 8 7 6 5 4 4 3 3 3
18 12 13 17 18 16 15 13 12 12 11 13 17 19 22 24 24 25 25 24 23 21 19 17 15 13 12 12 16 19 21 21 22 21 22 22 21 22 22 20 20 21 23 26 28 31 32 32 31 31 31 29 26 26 27 25 22 23 23 22 22 22 21 19 18 17 16 15 14 13 12 12 11 10 10 9 8 7 6 5 4 4 3 3 3 4
21 14 13 17 17 16 16 14 13 11 8 11 16 17 19 20 20 21 23 23 23 23 22 21 19 15 13 14 17 19 19 21 22 21 21 20 19 19 20 19 19 21 23 25 27 28 30 31 31 30 29 28 26 27 29 27 23 24 23 23 23 22 21 20 19 18 16 14 14 13 13 12 11 10 10 9 8 6 5 4 4 4 3 3 4 5
22 17 13 16 15 13 15 14 12 11 9 8 13 17 18 17 17 18 19 20 22 23 22 20 18 17 17 17 18 20 20 19 19 19 18 17 17 18 19 19 20 21 23 25 26 26 28 29 30 29 29 29 29 30 32 28 25 25 24 24 23 22 21 20 19 18 16 15 14 14 13 12 11 10 9 8 7 6 5 5 5 4 3 3 4 6
23 19 14 15 15 13 14 14 11 10 8 5 10 16 18 17 17 17 17 18 20 22 21 19 17 17 18 18 18 19 19 18 17 17 16 17 18 19 19 20 20 21 22 23 24 26 28 29 30 30 30 31 32 34 32 28 26 26 26 25 24 23 22 21 20 18 16 16 15 14 13 12 11 10 9 8 7 6 6 6 5 3 3 4 5 6
22 20 14 14 16 15 15 15 11 6 5 6 8 12 15 16 18 18 18 19 21 22 22 22 19 18 18 17 17 19 21 20 19 19 19 19 19 19 19 20 20 20 20 20 22 26 27 29 31 32 32 33 34 34 30 27 26 27 27 26 24 23 23 21 19 18 17 16 15 14 13 12 12 11 9 8 8 7 7 5 4 3 3 4 6 7
19 20 17 14 16 16 15 16 13 6 6 9 9 9 11 14 17 18 19 21 22 23 24 24 22 20 18 17 18 22 23 22 21 21 21 21 19 19 20 21 21 22 20 18 20 23 26 30 32 32 33 34 33 31 29 28 27 27 27 26 25 24 22 20 19 18 17 16 15 15 14 13 12 11 10 9 9 8 7 5 3 3 4 5 6 7
17 19 18 15 14 15 14 15 13 9 8 11 12 12 12 12 13 14 16 19 21 23 24 24 23 22 21 22 25 25 23 21 22 23 23 22 22 22 23 24 25 25 22 19 20 22 26 29 30 31 32 32 30 30 29 28 27 27 26 25 25 23 22 20 19 18 18 17 16 15 15 14 13 12 11 10 9 8 6 4 3 3 4 5 6 6
17 18 18 16 15 15 14 13 11 11 11 11 11 13 14 12 12 13 14 16 19 22 24 25 24 23 26 29 28 26 23 23 24 24 24 24 24 25 26 27 28 27 24 22 22 24 27 28 29 30 31 30 30 30 29 27 27 27 26 25 24 23 21 20 20 19 18 17 17 16 16 15 13 12 12 11 9 7 5 3 3 3 3 4 5 6
16 16 18 19 18 17 16 14 12 10 10 10 10 11 12 11 10 12 12 12 15 19 23 25 25 26 28 29 26 24 24 24 22 22 23 24 24 25 26 27 27 27 26 25 25 26 27 27 27 30 30 29 29 29 28 28 28 27 26 24 23 22 22 21 20 19 19 18 18 17 16 15 14 13 12 11 8 6 5 3 3 3 3 4 4 5
17 16 16 18 19 18 16 15 15 11 6 7 9 10 11 11 10 12 10 6 9 15 18 21 25 27 28 26 23 22 23 24 23 21 22 22 22 22 23 24 25 25 26 27 27 26 26 25 27 29 28 26 27 27 27 28 28 26 25 24 23 23 22 22 21 20 20 19 18 18 17 15 14 13 12 10 7 6 5 3 3 2 3 3 4 5
18 16 15 16 17 17 15 14 15 12 9 10 11 12 13 12 9 10 9 5 8 12 14 17 22 24 23 21 19 19 21 23 23 22 22 21 20 19 19 22 24 24 25 26 27 27 26 27 30 31 27 26 27 27 28 28 26 25 25 25 24 24 23 22 21 21 20 20 20 18 17 16 15 13 11 9 7 6 5 3 3 2 2 2 3 4
18 18 16 17 16 15 15 15 12 9 10 13 13 13 16 15 9 6 7 8 9 10 12 14 17 19 18 18 19 20 20 20 20 20 21 21 19 17 18 19 21 21 22 23 25 27 28 29 31 30 26 25 27 27 27 27 25 25 25 25 25 24 23 22 22 22 22 21 20 18 17 17 15 13 11 9 7 6 5 4 3 2 1 1 2 3
16 16 14 15 17 15 14 13 10 6 7 12 13 12 15 17 14 8 7 9 11 11 11 12 15 15 16 17 18 18 18 18 17 17 18 18 18 18 19 18 19 21 21 21 24 27 29 31 31 27 24 25 27 27 27 26 25 25 26 25 25 24 23 23 23 23 23 21 20 19 18 17 15 12 10 9 7 6 5 4 3 2 1 1 2 3
14 16 15 12 14 14 12 8 6 6 7 10 11 10 12 16 17 14 12 12 15 14 12 12 14 14 15 17 17 17 17 18 17 17 18 19 20 20 20 20 21 23 22 22 26 28 30 32 30 25 25 28 28 28 27 26 26 26 26 25 25 24 24 24 24 23 22 21 20 20 19 16 14 12 10 9 8 7 6 5 4 3 2 1 2 4
14 19 19 13 8 10 13 11 8 9 11 12 12 10 10 12 14 15 15 16 17 17 14 14 15 15 16 17 18 17 18 18 19 19 20 21 21 22 21 22 25 25 23 25 29 30 32 32 28 25 27 29 28 28 27 27 27 26 26 25 25 25 25 25 24 23 23 22 21 20 18 16 14 12 11 10 8 7 6 5 4 3 2 0 2 4
13 17 16 12 9 7 8 10 12 14 15 15 14 13 12 12 12 14 16 17 17 18 17 16 16 17 18 18 18 18 18 19 19 20 21 22 23 24 23 25 27 26 24 26 30 32 34 32 27 27 29 29 28 28 28 27 27 27 26 25 25 26 25 24 24 24 23 22 21 19 17 16 14 13 11 10 9 7 6 6 5 4 2 0 2 4
11 13 12 11 11 9 7 8 13 17 17 17 17 17 17 17 15 15 16 17 18 18 18 17 17 18 18 18 18 18 18 18 18 19 21 23 25 26 26 28 28 24 23 27 32 34 33 30 28 28 29 28 28 28 27 27 27 27 26 26 26 26 25 25 25 24 23 22 21 19 17 16 14 13 12 10 9 8 7 6 5 3 2 0 2 3
7 10 10 10 11 11 10 10 13 14 14 15 18 18 18 19 18 18 17 17 18 18 18 18 18 18 18 18 18 19 19 19 19 21 22 24 26 27 28 30 27 24 26 31 33 34 33 30 28 28 28 27 28 27 27 28 28 26 26 27 26 26 26 26 26 24 23 22 21 19 18 16 15 14 12 11 9 8 7 6 5 3 1 1 2 3
8 9 8 9 11 12 11 10 10 11 10 11 14 16 17 17 17 18 19 19 18 18 19 19 19 18 18 18 18 18 19 20 21 22 23 25 26 27 28 30 27 25 29 32 33 34 34 30 28 27 27 28 28 27 28 28 27 27 27 28 27 27 27 27 26 25 24 23 21 20 18 17 16 14 13 11 10 9 8 6 4 3 2 1 1 3
11 10 9 11 12 12 13 15 16 14 11 11 12 14 15 16 16 17 18 19 19 20 19 19 19 19 18 18 18 19 20 22 23 24 24 25 26 27 28 29 28 28 31 34 36 37 35 31 28 28 28 29 28 28 28 28 27 27 28 29 28 27 27 27 26 25 25 23 21 20 19 18 16 15 13 12 11 9 8 6 4 3 2 1 2 3
Wind_Direction
190 195 200 204 204 203 203 204 207 208 210 209 201 207 212 209 209 205 197 193 192 199 205 207 203 210 224 225 221 211 191 202 208 198 192 195 204 212 212 213 218 224 228 236 250 263 255 261 298 295 256 233 214 207 211 208 209 214 213 213 215 213 207 203 200 193 173 160 170 178 178 174 169 171 174 181 188 192 224 258 276 291 301 309 315 314
194 203 205 205 202 202 203 202 206 210 216 213 205 207 210 211 208 195 186 186 189 200 204 201 200 211 223 223 221 197 178 197 203 197 198 198 202 209 211 213 221 230 230 233 244 249 261 274 276 277 260 237 211 204 219 213 209 214 214 213 214 208 202 198 196 190 168 159 175 184 178 171 167 170 174 185 202 235 272 292 298 303 306 306 305 302
199 208 207 203 201 202 202 202 206 210 213 216 211 205 206 210 202 185 187 188 189 201 202 191 189 202 215 220 222 203 190 198 200 200 207 207 206 207 208 213 221 224 220 223 242 242 237 258 266 267 259 242 220 212 222 219 211 211 211 211 209 204 201 197 187 180 174 169 173 174 168 167 171 176 183 211 256 284 288 295 295 296 296 294 294 294
201 208 204 200 200 201 202 201 203 205 207 213 211 202 205 208 195 182 189 192 194 203 200 182 179 196 208 211 211 201 189 197 202 201 204 210 214 215 216 218 219 221 221 227 243 242 229 235 248 241 237 235 222 213 215 218 214 207 205 205 204 203 201 197 181 172 183 183 176 176 175 176 185 194 211 242 264 281 283 284 284 284 286 285 286 289
204 206 199 197 198 199 201 199 200 202 202 209 212 205 206 202 189 187 192 192 197 206 206 189 176 196 205 199 195 192 191 197 199 200 202 207 212 214 218 220 218 218 223 230 236 236 229 232 236 227 224 227 227 228 227 223 215 204 199 200 203 204 202 201 190 178 189 198 193 189 187 189 197 212 236 260 269 278 280 280 282 283 283 284 286 289
206 202 195 196 197 198 200 198 200 202 199 207 212 210 211 201 191 198 195 187 194 202 204 196 185 199 205 201 193 191 198 199 195 200 202 203 206 208 212 214 216 216 219 224 227 226 223 225 224 216 215 219 224 233 237 233 226 214 205 205 206 206 205 205 204 201 198 199 196 189 191 201 215 230 246 261 267 273 277 278 280 282 284 287 289 291
205 198 194 195 196 197 200 201 199 198 201 209 210 211 222 212 199 200 192 187 196 200 196 196 205 210 194 198 202 196 200 203 199 197 198 202 205 205 208 210 213 215 215 218 221 219 216 216 213 203 200 208 214 222 229 232 235 236 226 221 222 223 229 228 225 226 209 202 203 202 209 220 230 238 248 260 265 268 272 276 278 282 285 285 287 288
201 196 195 195 195 196 199 199 196 196 205 214 204 203 218 213 200 197 191 194 203 202 197 202 216 229 206 199 207 202 199 203 204 198 197 202 199 200 207 210 212 214 213 215 216 210 205 207 207 201 198 201 205 211 221 223 228 238 236 231 233 238 247 248 245 240 227 221 221 221 227 232 240 247 253 260 265 267 268 271 275 280 284 283 284 286
198 197 194 191 191 194 196 196 195 196 206 216 196 192 202 202 196 191 191 201 205 202 203 205 213 230 228 204 200 203 200 200 204 201 202 202 198 202 208 210 214 213 208 208 204 193 190 193 198 203 212 214 206 201 207 214 219 227 232 234 239 246 251 253 249 241 233 231 229 230 237 241 248 256 260 264 266 269 270 271 273 276 280 282 283 285
196 195 188 187 189 194 196 196 195 193 201 207 182 183 194 195 194 194 199 207 205 207 213 208 207 220 232 205 192 197 200 200 200 199 201 201 200 207 211 215 219 213 207 205 195 185 183 188 197 209 221 222 216 210 209 214 219 226 233 237 243 249 254 253 247 239 236 239 238 240 246 248 253 258 263 267 269 272 274 274 274 273 275 279 281 283
189 187 187 194 196 197 197 196 196 193 196 192 174 182 192 195 201 203 209 212 209 217 219 212 208 214 229 209 194 198 203 201 198 196 199 202 203 207 215 222 221 212 209 204 193 186 185 192 203 211 208 201 207 215 218 222 225 231 237 242 247 251 253 250 244 239 239 244 248 251 254 257 259 261 265 269 272 274 276 277 276 273 273 276 278 281
185 189 193 198 198 195 194 193 193 194 195 187 181 187 187 192 202 204 208 212 215 224 217 214 212 214 227 218 201 205 209 206 204 202 201 204 206 208 216 224 218 209 205 198 193 192 193 199 208 212 203 194 203 220 228 231 231 235 239 244 249 250 250 247 242 240 241 246 252 257 260 262 262 264 267 271 273 275 277 278 278 275 273 274 275 278
189 195 194 193 195 191 191 188 186 193 195 188 186 188 184 185 194 200 205 209 219 225 215 213 213 214 228 229 210 200 202 207 208 205 205 208 210 213 220 222 216 211 207 200 196 196 198 203 210 210 202 197 210 227 235 237 235 236 240 246 254 255 252 247 243 242 244 248 252 255 258 260 262 264 266 269 271 273 275 277 279 276 273 272 273 276
187 195 191 190 191 191 192 188 184 190 194 190 189 189 188 188 185 194 199 200 218 224 219 218 213 213 226 228 213 194 197 209 209 206 213 217 215 217 219 219 216 216 212 203 200 199 200 203 204 202 201 206 218 230 237 242 242 243 247 254 256 258 257 250 245 245 245 248 251 255 258 259 261 263 264 267 269 271 273 275 278 277 273 271 273 276
185 193 190 189 189 189 194 194 188 189 192 194 195 195 199 200 188 191 201 200 208 212 214 216 211 212 218 204 188 188 194 202 200 201 211 217 215 214 213 213 216 216 210 204 201 200 201 204 204 205 209 215 222 231 238 245 248 250 256 259 249 248 252 249 248 249 249 251 254 257 260 261 262 264 265 267 268 269 271 273 276 277 274 272 273 277
194 197 188 186 187 186 189 193 191 188 191 196 200 205 208 203 193 195 214 215 210 210 205 202 201 206 206 172 166 177 183 186 190 194 199 208 213 208 205 212 215 211 206 204 204 205 207 210 212 215 219 223 229 237 244 248 250 250 255 260 254 250 252 254 255 256 256 257 258 260 261 262 263 264 266 268 268 269 270 272 275 276 273 271 274 278
195 191 178 179 185 188 188 189 191 191 190 193 201 209 208 204 199 196 211 222 219 221 197 195 202 191 182 184 176 175 180 183 185 186 192 206 214 205 203 210 211 207 205 205 209 210 211 214 217 222 227 231 235 240 247 250 250 251 255 259 260 259 260 262 264 265 266 266 264 263 262 262 262 262 263 265 267 268 269 271 272 272 270 270 274 278
193 177 171 178 185 189 190 191 196 199 195 192 201 206 201 206 212 206 202 197 210 224 190 193 210 201 192 197 183 179 184 181 182 191 198 210 219 213 209 210 207 207 208 209 213 213 211 214 220 226 232 234 236 240 247 250 248 252 258 261 266 270 271 272 275 279 280 278 275 271 268 266 264 262 262 263 266 268 268 268 268 268 268 270 274 280
193 175 173 183 184 182 187 194 201 202 203 201 202 201 197 204 213 210 206 197 200 218 198 197 212 215 210 195 179 184 190 182 187 203 207 210 218 219 216 212 207 207 211 212 212 212 213 217 223 230 234 235 236 242 250 254 252 253 257 263 272 277 278 280 284 288 290 288 284 279 275 272 270 266 264 264 265 265 264 264 265 265 268 272 277 282
191 177 170 180 181 175 183 195 200 197 201 208 207 204 206 209 208 204 204 203 199 205 208 203 208 219 217 198 182 190 194 186 192 206 209 209 218 221 216 214 212 209 211 212 212 215 218 222 227 232 235 235 237 245 253 255 254 253 256 266 277 282 283 283 287 291 293 292 287 282 277 274 271 268 265 263 262 261 261 262 264 267 272 277 282 287
190 182 172 175 178 181 187 195 199 194 194 201 205 203 204 203 201 202 205 208 205 201 201 205 210 218 214 196 187 195 196 191 196 209 217 217 220 222 216 214 214 213 214 215 216 220 223 226 232 235 236 236 239 247 254 255 254 254 258 270 281 284 282 283 288 291 292 290 285 280 276 271 268 265 262 260 259 259 261 264 267 272 277 281 286 291
186 182 175 175 180 188 193 194 196 197 195 196 201 202 200 197 196 200 208 208 210 214 208 208 219 210 197 189 187 193 195 195 198 208 221 225 224 222 216 214 215 216 217 218 220 224 227 229 234 236 237 238 242 249 255 255 255 256 261 273 281 280 279 282 286 288 286 284 279 275 271 266 262 261 259 259 260 261 263 267 271 275 280 286 290 294
187 186 175 177 184 189 192 193 196 201 201 199 204 206 201 200 201 204 206 202 209 222 220 218 224 191 184 194 193 190 198 201 197 199 213 226 230 225 217 213 215 217 219 220 222 226 229 231 234 236 237 239 243 248 252 254 255 257 263 273 277 273 275 280 282 282 279 276 272 268 265 260 258 258 258 259 260 262 266 269 274 280 285 290 294 297
190 191 176 173 179 182 187 196 199 203 205 204 207 211 206 203 204 209 214 205 209 221 219 217 216 164 175 196 199 190 188 190 189 193 207 224 231 228 222 218 217 219 220 223 225 227 231 234 236 237 236 238 242 246 250 252 254 256 264 272 271 268 273 277 276 275 272 269 267 264 262 259 258 258 258 260 262 265 270 274 279 286 290 294 297 299
188 194 182 173 171 178 184 190 195 201 207 207 207 210 211 207 203 210 222 221 215 219 218 220 216 165 168 185 195 189 174 180 191 198 210 223 226 224 223 221 220 220 221 224 226 228 231 235 236 236 235 238 242 245 248 251 253 259 266 267 264 267 273 273 271 269 266 264 262 259 258 257 256 257 258 262 266 270 275 280 285 290 293 296 298 300
189 197 191 183 181 185 185 185 191 196 201 207 208 206 208 210 207 207 216 223 221 217 218 225 213 160 162 169 184 192 187 192 202 207 214 222 225 225 224 221 221 222 223 225 227 229 231 235 237 237 237 239 242 244 247 251 256 262 264 261 261 266 269 268 265 262 259 257 254 251 252 252 253 258 261 264 269 273 278 282 287 290 292 294 296 299
192 201 199 196 196 194 191 193 193 192 195 202 206 203 204 210 210 207 211 219 218 209 214 222 199 156 164 172 181 192 198 203 208 212 217 221 224 226 226 224 224 225 226 227 229 230 233 236 239 239 239 241 243 246 248 253 259 262 257 254 258 262 263 261 258 255 252 249 248 247 249 251 255 258 262 266 270 274 278 282 284 286 287 290 294 297
192 198 199 204 204 199 201 203 196 195 200 202 205 204 204 207 209 210 212 213 209 206 212 210 192 173 175 179 185 194 200 205 211 216 221 224 226 227 228 228 228 227 229 230 230 232 233 236 238 239 240 242 243 245 248 254 258 256 250 251 256 257 257 255 250 248 247 244 244 246 248 251 255 257 261 266 270 273 275 276 276 278 281 284 286 285
193 195 197 204 203 195 215 214 197 194 201 203 206 207 205 205 207 211 214 210 205 214 221 209 202 204 197 190 195 201 204 211 218 222 227 229 231 233 234 235 234 232 231 231 232 233 233 234 236 238 240 241 243 245 249 254 254 248 246 250 254 254 252 248 244 242 241 241 243 245 247 250 253 257 261 264 266 268 268 266 267 270 273 271 264 263
195 197 195 199 197 188 199 207 190 191 200 203 206 208 206 208 209 210 212 209 208 217 225 218 210 212 211 203 198 201 211 222 223 223 227 231 233 234 234 235 236 235 234 233 232 233 233 232 234 237 238 241 244 247 250 251 247 242 245 249 250 250 247 243 240 239 239 240 241 243 246 249 252 256 259 261 262 260 256 256 259 259 252 241 242 266
195 198 191 195 201 195 187 186 191 199 206 208 209 209 208 209 211 212 211 210 212 216 220 220 208 205 210 204 196 202 216 224 224 223 226 233 238 240 240 238 236 236 235 233 233 233 232 231 232 234 237 241 244 245 247 249 245 242 245 247 246 245 241 239 238 238 238 239 240 242 245 248 251 253 255 255 253 248 246 247 246 235 224 228 254 288
194 196 189 197 209 205 193 193 202 205 209 215 214 211 209 209 210 212 212 212 213 214 216 217 211 206 200 188 192 206 216 221 225 225 226 231 234 236 239 239 238 238 236 236 236 234 231 230 229 231 235 240 243 244 249 252 248 244 244 244 243 240 237 236 236 236 237 237 239 243 244 247 249 249 249 246 239 237 237 233 221 211 220 246 280 300
192 193 188 195 207 210 201 198 203 204 212 220 217 213 212 212 212 212 212 213 213 213 214 214 213 214 208 200 205 211 213 218 223 224 226 229 230 232 235 237 238 239 238 240 240 234 229 226 227 231 236 240 242 245 252 254 248 243 242 240 238 235 232 234 234 234 235 236 238 242 242 244 245 242 239 233 228 227 222 210 204 211 236 272 293 304
191 196 195 193 201 209 199 195 202 211 218 216 206 205 207 209 211 210 210 210 209 210 212 214 217 218 217 219 217 211 209 214 219 223 226 228 231 235 237 238 239 240 242 244 242 237 231 227 228 235 239 239 240 246 251 250 243 239 238 234 231 229 228 230 231 230 232 233 236 239 239 240 238 235 229 221 218 215 203 199 208 225 256 285 299 307
188 194 198 195 201 203 190 191 209 218 217 203 192 199 205 207 209 212 214 211 206 206 209 213 216 214 217 224 223 219 221 222 221 225 228 228 231 236 237 237 239 242 245 246 243 239 235 231 231 236 237 238 242 246 248 244 238 234 232 228 225 225 226 227 226 226 229 231 233 235 234 234 231 224 217 211 208 201 195 203 218 239 272 293 302 309
188 194 200 198 203 204 190 194 213 217 197 189 177 186 201 206 205 208 214 213 209 210 213 214 214 213 215 217 216 220 226 225 225 227 227 229 232 235 238 239 239 242 245 244 242 239 234 230 230 233 236 240 243 243 242 238 234 229 225 222 221 222 223 223 223 224 226 228 230 230 228 226 220 212 207 204 198 194 198 211 228 253 282 296 304 311
190 195 206 207 206 209 205 206 214 210 193 200 193 183 194 204 207 208 213 217 216 214 213 213 214 214 212 208 207 214 220 223 228 227 225 230 235 236 240 240 238 243 244 239 239 237 230 228 230 232 235 237 237 236 236 234 227 222 219 219 219 219 219 219 220 222 223 224 225 224 222 216 208 203 200 196 192 195 205 216 235 264 287 298 306 311
193 195 206 211 206 213 223 221 217 218 218 216 215 211 204 204 210 211 217 225 223 216 212 212 212 210 208 209 213 215 218 223 227 226 224 226 230 234 239 240 238 241 241 235 231 227 222 222 225 226 229 230 229 231 232 228 220 215 215 216 215 215 216 216 218 219 220 220 220 218 214 205 199 197 194 190 192 200 208 218 241 268 287 300 307 313
198 197 204 209 207 215 230 233 224 227 232 223 214 211 208 209 210 206 218 232 223 211 210 210 207 208 212 217 220 219 219 222 225 227 227 227 229 234 240 244 243 241 238 234 227 221 219 217 216 218 223 224 225 226 224 218 213 211 211 211 211 213 213 215 216 216 216 216 215 212 205 196 194 192 188 189 195 201 207 218 240 267 288 300 309 315
196 200 206 211 214 217 226 235 237 234 231 218 202 194 195 201 201 197 215 233 215 207 213 210 204 210 218 222 222 220 219 221 223 228 231 232 235 239 244 251 252 245 239 236 229 223 221 217 215 219 223 224 222 219 214 210 208 207 206 207 209 210 212 214 214 214 213 213 210 205 197 190 189 188 188 191 196 198 203 216 236 265 286 299 310 318
194 201 209 212 215 216 217 229 238 236 221 205 198 190 185 184 186 196 217 226 188 197 215 212 206 215 223 222 219 217 219 221 223 226 230 234 239 244 248 254 254 245 239 238 235 226 217 212 215 223 227 226 221 213 207 206 205 204 204 206 208 210 211 212 212 211 211 208 203 197 191 187 186 187 188 192 193 194 198 209 231 259 280 296 316 330
190 195 205 210 215 219 217 222 234 235 221 208 199 194 196 196 196 208 219 203 170 186 203 203 206 216 223 219 215 215 219 222 224 227 232 238 245 248 247 249 250 245 242 243 239 227 214 210 216 223 225 222 215 207 204 203 203 202 204 206 208 210 210 210 209 209 207 203 197 191 186 185 186 187 188 189 189 190 195 205 224 244 271 302 331 344
188 190 201 207 211 220 220 221 231 231 215 213 210 205 208 212 213 206 191 178 182 193 195 195 202 210 213 214 215 217 220 224 226 229 235 241 246 248 246 249 251 250 249 247 238 226 218 217 222 225 223 218 211 206 203 202 201 202 205 207 208 209 209 208 206 205 204 199 192 186 183 183 185 186 186 185 185 188 192 199 212 226 253 314 342 348
194 195 206 207 204 214 222 219 225 223 197 200 207 211 215 217 220 221 206 191 194 200 201 202 205 207 209 214 217 217 220 225 226 228 233 238 241 243 246 251 253 252 251 242 228 220 219 222 226 226 219 212 209 205 202 200 201 204 206 207 208 209 207 205 204 204 201 194 186 183 183 183 184 184 183 182 182 186 192 197 201 207 222 291 339 352
198 203 217 214 201 214 232 224 211 222 219 210 211 222 231 229 226 227 228 218 207 207 214 216 212 210 212 215 216 215 217 222 224 224 229 234 238 242 246 249 251 252 248 230 217 216 219 223 225 222 214 209 207 204 201 199 201 204 206 207 208 208 205 205 205 201 195 188 184 183 183 183 183 182 180 180 183 186 190 194 196 200 212 256 354 8
207 207 217 221 205 221 243 244 231 233 240 235 230 232 237 235 230 225 222 219 213 215 227 228 218 214 215 215 215 216 217 222 226 228 233 239 245 247 248 248 249 250 242 226 217 215 220 224 223 216 210 208 205 202 201 201 201 203 206 207 207 205 205 204 202 195 189 185 183 182 182 183 183 181 179 180 184 187 190 194 197 203 209 267 12 18
216 212 213 218 222 230 240 241 237 239 243 242 240 237 234 234 237 232 226 225 224 227 232 230 220 215 215 215 217 220 224 227 230 234 239 243 249 251 250 249 251 250 242 231 223 219 222 224 220 211 209 208 203 201 201 202 202 202 204 205 205 205 203 201 196 190 187 184 182 182 184 184 182 181 181 182 184 187 191 195 200 206 209 5 22 18
210 215 211 214 227 235 234 239 244 244 245 247 248 247 243 241 242 240 236 236 236 233 228 222 217 216 217 219 222 225 228 232 236 241 244 245 248 251 249 249 251 246 236 229 226 225 226 225 217 211 209 206 204 204 204 204 204 203 202 203 204 204 201 196 191 188 185 183 183 185 186 184 181 182 182 183 186 188 192 198 202 207 216 1 21 13
198 208 215 218 226 232 233 245 257 256 253 252 251 249 246 242 241 241 243 244 242 237 228 222 221 221 222 223 226 230 234 240 245 249 251 250 251 251 250 250 248 239 229 227 227 227 227 223 216 213 210 206 206 207 206 205 205 203 202 202 202 201 197 192 188 186 184 184 186 187 186 183 182 184 184 185 188 190 195 202 205 209 227 316 9 3
227 219 227 233 235 235 228 228 239 244 247 249 245 241 242 242 241 242 244 244 241 236 231 228 226 225 225 228 233 239 245 249 252 253 253 254 254 252 251 250 244 232 226 225 222 222 223 219 214 212 210 208 209 209 207 206 204 202 202 201 199 197 193 190 188 187 185 186 187 187 186 184 184 184 186 188 191 194 198 202 207 215 233 288 340 345
230 221 222 229 237 240 234 230 232 234 237 241 237 235 237 239 240 241 240 238 235 231 230 230 228 229 233 238 244 250 254 255 255 254 253 254 254 252 250 248 242 232 226 220 217 218 220 216 210 210 210 209 209 207 206 205 204 202 204 202 197 194 192 190 189 187 184 186 188 187 186 186 187 187 189 191 195 199 201 205 212 220 234 273 308 324
Height
3092 3093 3092 3091 3093 3097 3099 3103 3105 3107 3109 3109 3111 3112 3111 3111 3111 3112 3115 3117 3121 3124 3125 3125 3124 3124 3125 3125 3122 3126 3133 3134 3135 3137 3138 3139 3141 3143 3145 3146 3147 3148 3150 3151 3152 3154 3155 3158 3159 3160 3160 3160 3162 3163 3164 3165 3165 3166 3167 3167 3167 3169 3171 3171 3171 3170 3166 3166 3168 3168 3168 3169 3170 3170 3171 3172 3172 3173 3174 3175 3175 3175 3176 3176 3176 3175
3090 3088 3086 3088 3093 3097 3100 3103 3105 3106 3107 3107 3108 3109 3110 3110 3110 3111 3114 3117 3119 3122 3123 3122 3123 3124 3124 3124 3125 3130 3134 3134 3135 3136 3137 3139 3140 3142 3143 3145 3147 3148 3150 3151 3152 3153 3155 3157 3158 3159 3160 3161 3162 3164 3164 3165 3165 3165 3167 3168 3169 3171 3173 3172 3170 3167 3164 3166 3168 3168 3168 3169 3169 3170 3170 3171 3172 3173 3173 3174 3174 3174 3175 3175 3175 3174
3084 3081 3083 3089 3093 3097 3100 3102 3104 3105 3106 3106 3106 3107 3107 3107 3108 3111 3115 3117 3119 3121 3121 3119 3122 3124 3122 3124 3127 3130 3132 3133 3134 3135 3137 3138 3139 3140 3141 3144 3145 3147 3148 3149 3150 3151 3154 3157 3158 3159 3160 3161 3162 3162 3162 3164 3165 3166 3167 3168 3170 3171 3171 3170 3168 3166 3166 3167 3167 3168 3168 3169 3169 3170 3170 3171 3171 3172 3173 3173 3173 3174 3174 3174 3174 3174
3076 3077 3084 3090 3093 3096 3098 3100 3102 3104 3105 3105 3104 3104 3105 3104 3105 3109 3114 3117 3118 3120 3120 3118 3121 3123 3121 3124 3127 3129 3131 3132 3133 3135 3137 3138 3138 3140 3141 3143 3144 3146 3147 3148 3149 3150 3152 3155 3157 3158 3158 3159 3160 3160 3160 3163 3165 3167 3168 3169 3169 3170 3169 3168 3166 3166 3167 3167 3167 3168 3168 3169 3169 3170 3170 3171 3171 3172 3172 3173 3173 3173 3173 3173 3173 3173
3075 3079 3085 3089 3092 3094 3096 3098 3100 3102 3103 3104 3103 3102 3102 3102 3105 3109 3112 3116 3118 3119 3119 3118 3121 3123 3122 3123 3125 3128 3130 3130 3132 3135 3136 3137 3138 3139 3140 3142 3143 3144 3146 3146 3147 3149 3151 3153 3156 3157 3158 3159 3160 3161 3162 3164 3166 3167 3169 3170 3169 3169 3168 3167 3166 3166 3167 3167 3167 3167 3168 3168 3169 3170 3170 3170 3171 3171 3171 3172 3172 3172 3173 3173 3173 3173
3077 3081 3084 3087 3090 3092 3094 3096 3097 3099 3101 3102 3102 3102 3102 3102 3106 3110 3111 3114 3115 3116 3116 3117 3121 3123 3123 3123 3124 3126 3127 3128 3131 3133 3134 3136 3137 3138 3139 3140 3141 3143 3144 3145 3146 3148 3150 3153 3155 3156 3158 3160 3162 3163 3164 3165 3166 3167 3168 3169 3168 3167 3167 3166 3166 3166 3166 3166 3167 3167 3168 3168 3169 3169 3170 3170 3170 3170 3171 3171 3171 3172 3172 3172 3172 3172
3077 3080 3082 3085 3088 3090 3092 3093 3095 3098 3100 3100 3100 3102 3102 3102 3105 3108 3110 3112 3112 3112 3114 3116 3119 3120 3121 3122 3122 3124 3126 3126 3128 3131 3132 3134 3136 3137 3138 3139 3140 3141 3142 3144 3145 3147 3150 3153 3155 3157 3158 3160 3161 3162 3163 3165 3166 3166 3166 3167 3167 3166 3165 3165 3165 3165 3165 3166 3166 3167 3168 3168 3168 3169 3169 3169 3169 3170 3170 3170 3171 3171 3171 3171 3171 3171
3074 3077 3079 3082 3085 3088 3089 3091 3093 3096 3098 3097 3098 3101 3102 3102 3104 3106 3108 3110 3110 3112 3114 3116 3118 3117 3117 3119 3120 3122 3124 3124 3125 3128 3129 3131 3133 3135 3136 3137 3138 3140 3142 3143 3145 3147 3150 3152 3154 3156 3158 3159 3159 3160 3161 3163 3164 3165 3165 3165 3165 3165 3165 3164 3164 3164 3165 3165 3166 3166 3167 3167 3168 3168 3168 3168 3169 3169 3169 3169 3170 3170 3170 3170 3170 3170
3071 3074 3076 3079 3082 3084 3086 3089 3092 3095 3097 3097 3097 3100 3102 3103 3104 3105 3108 3109 3109 3111 3111 3113 3117 3116 3113 3116 3118 3120 3122 3122 3123 3125 3127 3128 3130 3133 3134 3136 3137 3139 3141 3143 3145 3147 3148 3151 3152 3154 3156 3157 3157 3158 3160 3161 3162 3163 3163 3163 3163 3163 3163 3163 3164 3164 3164 3165 3165 3166 3166 3167 3167 3167 3167 3167 3168 3168 3168 3168 3168 3169 3169 3169 3169 3168
3071 3072 3075 3078 3081 3083 3086 3089 3092 3094 3096 3096 3097 3100 3103 3104 3104 3106 3107 3107 3109 3109 3108 3110 3115 3113 3110 3113 3117 3118 3120 3121 3122 3124 3126 3127 3129 3131 3132 3134 3136 3138 3140 3143 3144 3145 3147 3149 3151 3152 3153 3154 3155 3157 3158 3159 3160 3160 3161 3161 3161 3161 3162 3162 3163 3163 3164 3164 3165 3166 3166 3166 3166 3166 3166 3166 3167 3167 3167 3167 3167 3168 3168 3167 3167 3167
3069 3072 3075 3077 3080 3082 3086 3089 3090 3092 3095 3096 3097 3100 3102 3103 3104 3106 3106 3107 3108 3106 3104 3108 3112 3112 3110 3110 3113 3115 3118 3120 3122 3124 3125 3126 3128 3130 3131 3132 3134 3137 3140 3141 3143 3144 3146 3148 3149 3151 3152 3153 3153 3155 3156 3157 3158 3159 3159 3159 3160 3160 3161 3161 3162 3163 3163 3164 3164 3165 3165 3165 3165 3165 3165 3165 3166 3166 3166 3166 3166 3166 3166 3166 3166 3166
3067 3071 3073 3076 3079 3082 3085 3087 3089 3092 3093 3095 3097 3098 3100 3102 3103 3104 3104 3106 3104 3101 3103 3107 3110 3111 3109 3107 3109 3112 3116 3119 3121 3123 3124 3125 3128 3129 3130 3131 3133 3136 3139 3140 3141 3143 3144 3146 3148 3150 3151 3151 3152 3153 3155 3156 3157 3158 3158 3159 3159 3160 3160 3161 3161 3162 3163 3163 3163 3163 3164 3164 3164 3164 3164 3164 3164 3165 3165 3165 3165 3165 3165 3164 3164 3164
3065 3068 3071 3074 3077 3080 3082 3084 3087 3090 3091 3093 3094 3095 3096 3097 3100 3101 3101 3102 3100 3098 3102 3106 3108 3109 3107 3107 3108 3110 3115 3118 3120 3123 3123 3124 3127 3128 3128 3130 3132 3135 3137 3138 3139 3141 3143 3145 3146 3148 3149 3150 3151 3152 3154 3155 3156 3157 3158 3158 3159 3159 3160 3160 3160 3161 3161 3162 3162 3162 3162 3162 3162 3162 3162 3162 3163 3163 3163 3163 3163 3163 3163 3163 3163 3163
3064 3067 3069 3072 3074 3076 3079 3079 3082 3084 3086 3089 3090 3091 3091 3090 3095 3098 3097 3098 3099 3099 3101 3104 3105 3104 3104 3107 3108 3109 3113 3116 3118 3121 3122 3122 3125 3126 3127 3129 3130 3133 3135 3136 3138 3139 3141 3143 3145 3146 3148 3149 3150 3151 3153 3154 3155 3156 3157 3158 3159 3159 3159 3159 3159 3160 3160 3160 3160 3160 3160 3160 3160 3160 3160 3160 3161 3161 3161 3161 3161 3161 3161 3161 3161 3161
3061 3061 3063 3066 3069 3072 3075 3077 3079 3081 3084 3087 3088 3089 3088 3087 3091 3095 3094 3095 3097 3098 3100 3102 3101 3101 3103 3105 3106 3109 3113 3115 3117 3120 3122 3122 3123 3124 3126 3127 3128 3131 3133 3135 3137 3138 3140 3142 3144 3145 3146 3148 3149 3150 3151 3153 3154 3155 3156 3157 3157 3157 3157 3157 3158 3158 3158 3158 3158 3158 3158 3158 3158 3158 3158 3158 3158 3159 3159 3159 3159 3159 3159 3159 3159 3159
3058 3057 3059 3064 3067 3070 3074 3077 3080 3082 3084 3086 3088 3088 3087 3086 3090 3093 3092 3092 3094 3095 3097 3099 3100 3101 3103 3103 3106 3109 3112 3115 3117 3117 3120 3121 3121 3122 3124 3124 3126 3129 3130 3133 3135 3137 3139 3141 3143 3144 3145 3146 3147 3149 3150 3151 3152 3153 3154 3155 3156 3156 3156 3156 3156 3156 3156 3156 3156 3156 3155 3155 3155 3155 3155 3156 3156 3156 3157 3157 3157 3157 3158 3158 3158 3158
3055 3056 3059 3064 3067 3070 3073 3076 3079 3080 3081 3084 3086 3084 3084 3087 3089 3091 3092 3093 3094 3093 3093 3097 3099 3100 3102 3104 3106 3109 3111 3114 3116 3116 3117 3118 3118 3120 3121 3122 3125 3127 3129 3131 3134 3136 3138 3140 3142 3142 3143 3145 3146 3147 3148 3149 3150 3151 3153 3153 3154 3154 3154 3154 3154 3154 3154 3153 3153 3153 3152 3152 3152 3152 3153 3153 3154 3154 3155 3155 3155 3156 3156 3156 3156 3156
3052 3054 3058 3062 3066 3069 3073 3076 3078 3079 3080 3081 3082 3082 3085 3088 3087 3088 3090 3092 3093 3091 3090 3096 3098 3097 3100 3103 3104 3108 3110 3112 3114 3114 3115 3116 3117 3118 3119 3121 3124 3125 3127 3130 3133 3135 3137 3139 3140 3141 3142 3143 3144 3145 3146 3147 3148 3149 3151 3151 3151 3152 3152 3152 3152 3152 3151 3151 3150 3150 3149 3149 3149 3150 3150 3151 3152 3152 3152 3153 3153 3154 3154 3154 3154 3154
3050 3053 3058 3062 3064 3067 3072 3075 3076 3077 3079 3079 3081 3083 3084 3084 3084 3085 3087 3089 3091 3090 3089 3094 3095 3095 3097 3098 3100 3105 3107 3109 3111 3112 3113 3114 3115 3116 3118 3120 3122 3124 3126 3128 3131 3133 3135 3137 3138 3139 3140 3141 3142 3143 3144 3145 3146 3147 3148 3149 3149 3150 3150 3150 3150 3149 3149 3148 3148 3147 3147 3147 3147 3148 3148 3149 3149 3150 3150 3151 3151 3152 3152 3152 3152 3152
3049 3052 3057 3061 3064 3067 3070 3072 3072 3073 3076 3078 3080 3081 3081 3082 3082 3083 3085 3086 3088 3088 3090 3092 3093 3092 3094 3095 3098 3102 3105 3108 3109 3109 3111 3113 3114 3114 3116 3118 3120 3122 3124 3126 3129 3131 3133 3135 3136 3137 3138 3139 3140 3141 3142 3143 3144 3145 3146 3147 3147 3148 3148 3148 3148 3148 3147 3147 3146 3146 3145 3145 3146 3146 3146 3147 3148 3148 3149 3149 3150 3150 3151 3150 3150 3150
3049 3051 3055 3059 3062 3064 3064 3065 3067 3070 3073 3075 3077 3077 3078 3081 3083 3084 3085 3084 3084 3085 3088 3090 3090 3090 3092 3094 3097 3100 3104 3107 3108 3109 3110 3112 3112 3113 3115 3117 3119 3121 3123 3125 3127 3129 3131 3133 3134 3135 3136 3137 3138 3139 3140 3142 3142 3143 3144 3145 3146 3146 3147 3146 3146 3146 3145 3145 3144 3144 3144 3144 3144 3145 3145 3146 3147 3147 3148 3148 3149 3149 3149 3149 3148 3148
3048 3050 3052 3055 3058 3059 3060 3063 3067 3070 3072 3074 3076 3075 3076 3079 3081 3082 3082 3082 3083 3083 3084 3087 3087 3088 3091 3094 3096 3100 3103 3105 3107 3109 3111 3110 3111 3112 3113 3115 3117 3119 3121 3123 3124 3126 3128 3130 3131 3133 3134 3135 3137 3138 3139 3140 3140 3141 3142 3143 3144 3145 3145 3145 3144 3144 3144 3143 3143 3143 3143 3143 3144 3144 3145 3145 3146 3146 3147 3147 3147 3147 3147 3147 3146 3146
3047 3049 3051 3053 3055 3057 3061 3064 3067 3070 3072 3074 3075 3075 3076 3077 3079 3079 3079 3080 3083 3082 3082 3084 3085 3086 3089 3092 3095 3099 3101 3103 3104 3107 3110 3109 3109 3110 3111 3113 3115 3117 3119 3121 3122 3124 3126 3128 3129 3131 3132 3134 3135 3136 3137 3138 3138 3139 3140 3142 3143 3143 3143 3143 3143 3142 3142 3142 3142 3142 3142 3143 3143 3143 3144 3144 3145 3145 3145 3146 3146 3146 3145 3145 3145 3144
3047 3048 3049 3052 3055 3059 3062 3064 3067 3069 3071 3072 3073 3074 3075 3076 3077 3079 3079 3080 3081 3081 3081 3082 3083 3086 3089 3091 3094 3097 3100 3102 3103 3105 3107 3107 3107 3109 3110 3111 3113 3115 3117 3119 3120 3122 3124 3125 3127 3128 3130 3132 3133 3134 3135 3136 3136 3138 3139 3140 3141 3141 3141 3141 3141 3141 3141 3141 3141 3141 3141 3141 3142 3142 3142 3143 3143 3144 3144 3144 3144 3144 3144 3143 3143 3142
3046 3047 3047 3049 3053 3056 3058 3060 3063 3065 3066 3067 3069 3072 3074 3075 3077 3079 3080 3080 3081 3081 3081 3080 3081 3086 3089 3091 3094 3097 3099 3101 3102 3103 3105 3105 3106 3107 3108 3109 3111 3112 3114 3116 3117 3119 3121 3123 3124 3126 3128 3129 3131 3133 3134 3134 3134 3136 3138 3138 3138 3139 3139 3139 3139 3139 3139 3139 3140 3140 3140 3140 3141 3141 3142 3142 3142 3143 3143 3143 3142 3142 3142 3141 3141 3141
3046 3046 3045 3046 3048 3049 3050 3053 3056 3059 3063 3065 3067 3069 3072 3074 3076 3078 3080 3080 3079 3080 3081 3080 3081 3085 3088 3090 3092 3095 3097 3098 3099 3101 3102 3103 3104 3105 3106 3107 3108 3110 3111 3113 3115 3117 3119 3121 3122 3124 3126 3127 3129 3131 3132 3132 3132 3134 3135 3136 3136 3137 3137 3137 3138 3138 3138 3138 3138 3139 3139 3140 3140 3140 3141 3141 3142 3142 3142 3141 3141 3141 3140 3140 3140 3140
3045 3045 3044 3045 3046 3047 3049 3053 3056 3059 3061 3063 3065 3067 3070 3072 3074 3076 3078 3077 3077 3080 3081 3080 3082 3086 3088 3089 3091 3093 3095 3096 3097 3098 3100 3101 3102 3103 3104 3105 3106 3107 3109 3111 3113 3115 3117 3119 3120 3122 3123 3125 3127 3129 3130 3130 3130 3132 3133 3134 3134 3135 3135 3136 3136 3136 3137 3137 3137 3138 3138 3139 3139 3140 3140 3140 3141 3141 3140 3140 3140 3140 3139 3139 3139 3139
3044 3044 3045 3046 3047 3048 3050 3053 3056 3058 3060 3062 3065 3066 3068 3070 3072 3074 3075 3076 3078 3080 3079 3080 3083 3085 3087 3089 3090 3091 3092 3094 3095 3097 3098 3099 3100 3101 3102 3103 3104 3106 3107 3109 3110 3112 3114 3117 3118 3119 3121 3123 3125 3126 3127 3127 3128 3130 3131 3132 3132 3133 3134 3134 3135 3135 3136 3136 3136 3137 3137 3138 3138 3139 3139 3139 3139 3139 3139 3139 3139 3139 3139 3139 3138 3138
3044 3044 3046 3047 3047 3048 3050 3051 3052 3056 3059 3061 3063 3065 3067 3069 3070 3072 3074 3076 3079 3079 3078 3080 3083 3084 3087 3089 3090 3091 3092 3093 3095 3096 3097 3098 3099 3100 3101 3102 3103 3104 3105 3106 3108 3110 3112 3114 3115 3117 3119 3120 3122 3124 3124 3124 3126 3128 3128 3129 3130 3131 3132 3133 3133 3134 3134 3135 3135 3136 3136 3137 3137 3138 3138 3138 3138 3138 3138 3138 3138 3138 3138 3138 3138 3137
3044 3045 3046 3048 3049 3050 3051 3051 3052 3055 3058 3059 3061 3063 3066 3068 3069 3071 3074 3076 3078 3079 3079 3081 3083 3084 3086 3088 3090 3091 3093 3093 3093 3095 3096 3097 3098 3099 3100 3101 3102 3103 3104 3105 3106 3107 3109 3111 3113 3115 3116 3118 3120 3121 3121 3121 3123 3125 3126 3127 3128 3129 3130 3131 3132 3132 3133 3134 3134 3135 3135 3136 3136 3136 3136 3137 3137 3137 3137 3137 3137 3137 3137 3137 3137 3137
3043 3044 3046 3048 3049 3051 3052 3054 3055 3056 3057 3059 3060 3061 3063 3066 3068 3070 3073 3075 3077 3078 3080 3081 3082 3084 3085 3087 3089 3090 3091 3091 3092 3094 3095 3096 3096 3097 3098 3099 3100 3101 3102 3103 3104 3105 3107 3109 3111 3112 3114 3115 3117 3119 3118 3119 3121 3122 3123 3125 3126 3127 3129 3129 3130 3131 3132 3132 3133 3133 3134 3134 3135 3135 3135 3135 3135 3135 3136 3136 3136 3136 3136 3136 3136 3136
3042 3044 3046 3049 3049 3050 3052 3055 3056 3057 3058 3058 3058 3059 3061 3063 3066 3068 3070 3073 3075 3077 3079 3080 3081 3083 3084 3086 3087 3088 3089 3090 3091 3092 3093 3094 3095 3095 3096 3097 3098 3099 3100 3101 3102 3103 3105 3106 3108 3109 3111 3113 3115 3116 3115 3116 3119 3120 3121 3123 3124 3126 3127 3127 3128 3129 3130 3131 3131 3132 3132 3133 3133 3133 3133 3134 3134 3134 3134 3135 3135 3135 3135 3135 3135 3135
3043 3044 3046 3048 3049 3049 3051 3054 3056 3057 3057 3056 3056 3058 3060 3061 3064 3066 3068 3071 3073 3075 3077 3077 3079 3082 3083 3084 3085 3086 3087 3088 3089 3090 3091 3092 3092 3093 3094 3095 3096 3097 3098 3099 3100 3101 3103 3104 3106 3107 3109 3111 3113 3113 3112 3114 3116 3118 3120 3121 3122 3124 3125 3126 3127 3128 3128 3129 3130 3130 3131 3131 3131 3132 3132 3132 3133 3133 3133 3133 3134 3134 3134 3134 3134 3134
3042 3044 3046 3048 3048 3048 3050 3053 3055 3056 3054 3052 3053 3056 3058 3060 3063 3064 3066 3068 3070 3073 3074 3076 3078 3081 3081 3081 3083 3084 3085 3086 3087 3088 3089 3090 3091 3091 3092 3093 3094 3095 3096 3097 3098 3099 3100 3102 3104 3105 3107 3109 3110 3110 3109 3111 3114 3116 3118 3119 3120 3122 3123 3124 3125 3126 3127 3127 3128 3129 3129 3130 3130 3131 3131 3131 3132 3132 3132 3133 3133 3133 3133 3134 3133 3133
3042 3044 3045 3047 3047 3048 3049 3052 3054 3052 3050 3050 3052 3054 3056 3059 3062 3064 3065 3067 3068 3071 3073 3074 3077 3078 3078 3079 3081 3083 3083 3084 3085 3086 3087 3088 3089 3089 3090 3091 3092 3093 3093 3094 3096 3097 3098 3100 3101 3102 3104 3106 3106 3106 3107 3109 3112 3114 3116 3117 3118 3119 3121 3122 3123 3124 3125 3126 3126 3127 3128 3128 3129 3129 3130 3130 3131 3131 3132 3132 3132 3133 3133 3133 3133 3132
3041 3043 3044 3045 3046 3046 3047 3050 3051 3050 3049 3051 3052 3053 3055 3058 3060 3062 3064 3065 3066 3069 3070 3072 3074 3076 3077 3079 3080 3081 3081 3082 3083 3084 3085 3086 3086 3088 3088 3089 3090 3091 3091 3092 3093 3094 3095 3097 3099 3100 3102 3103 3103 3103 3105 3107 3110 3112 3113 3115 3116 3117 3119 3120 3121 3122 3123 3124 3124 3125 3126 3127 3127 3128 3129 3129 3130 3130 3131 3131 3132 3132 3132 3132 3132 3131
3041 3043 3044 3044 3044 3044 3044 3047 3049 3049 3049 3050 3051 3052 3054 3056 3057 3060 3061 3062 3063 3065 3067 3069 3071 3073 3075 3077 3078 3078 3079 3080 3081 3082 3083 3084 3085 3086 3086 3087 3088 3088 3089 3090 3091 3092 3094 3096 3097 3099 3100 3100 3100 3102 3103 3105 3107 3109 3111 3112 3114 3115 3117 3117 3119 3120 3121 3122 3123 3124 3124 3125 3126 3127 3128 3128 3129 3130 3130 3131 3131 3131 3131 3131 3131 3130
3041 3043 3044 3043 3043 3044 3044 3044 3045 3046 3047 3048 3050 3051 3053 3054 3056 3058 3059 3060 3060 3062 3064 3066 3069 3071 3072 3073 3074 3075 3077 3078 3078 3079 3081 3082 3083 3084 3084 3085 3085 3085 3086 3087 3088 3090 3092 3093 3094 3096 3096 3096 3098 3099 3101 3103 3105 3107 3108 3110 3112 3113 3114 3115 3117 3118 3119 3120 3121 3122 3123 3124 3125 3126 3127 3127 3128 3129 3129 3130 3130 3130 3130 3130 3130 3129
3040 3042 3043 3043 3043 3044 3045 3043 3042 3043 3044 3045 3047 3049 3051 3053 3055 3057 3058 3057 3056 3059 3061 3063 3066 3068 3069 3069 3071 3073 3074 3075 3076 3077 3078 3079 3081 3082 3082 3082 3083 3083 3084 3085 3086 3087 3088 3089 3091 3092 3093 3094 3096 3097 3098 3101 3103 3105 3106 3108 3110 3111 3112 3113 3115 3116 3117 3118 3119 3120 3122 3123 3124 3125 3126 3127 3128 3128 3129 3129 3129 3129 3129 3129 3129 3129
3039 3041 3042 3042 3042 3043 3045 3044 3042 3042 3043 3043 3045 3048 3050 3052 3053 3055 3055 3053 3054 3056 3058 3060 3063 3064 3065 3067 3068 3070 3072 3073 3075 3076 3076 3077 3079 3079 3080 3080 3081 3081 3081 3082 3084 3085 3086 3087 3089 3089 3091 3092 3093 3095 3097 3099 3101 3103 3105 3106 3107 3109 3110 3112 3113 3114 3116 3117 3118 3119 3120 3122 3123 3124 3125 3126 3127 3127 3128 3128 3128 3128 3128 3128 3128 3128
3038 3039 3040 3040 3040 3042 3043 3044 3042 3042 3042 3042 3044 3047 3049 3051 3052 3053 3053 3051 3052 3055 3057 3058 3061 3062 3063 3064 3066 3068 3069 3070 3072 3073 3074 3075 3076 3077 3078 3078 3078 3078 3079 3080 3081 3082 3084 3086 3087 3088 3089 3091 3092 3094 3096 3097 3099 3101 3103 3104 3106 3107 3108 3110 3111 3113 3114 3115 3116 3118 3119 3120 3121 3123 3124 3125 3126 3126 3127 3127 3127 3128 3128 3127 3127 3127
3036 3038 3039 3039 3039 3040 3041 3042 3042 3041 3041 3042 3044 3046 3048 3050 3051 3051 3051 3051 3052 3054 3055 3057 3059 3060 3061 3063 3065 3066 3066 3067 3069 3071 3072 3073 3074 3075 3076 3075 3075 3076 3077 3078 3079 3080 3082 3084 3084 3086 3087 3088 3090 3092 3094 3096 3098 3099 3101 3102 3104 3105 3107 3108 3110 3111 3112 3113 3115 3116 3118 3119 3121 3122 3123 3124 3125 3125 3126 3126 3126 3127 3127 3126 3126 3126
3033 3035 3037 3037 3038 3038 3038 3039 3040 3039 3039 3041 3043 3044 3046 3048 3048 3048 3050 3052 3052 3053 3054 3056 3057 3058 3059 3061 3062 3063 3064 3066 3068 3069 3070 3071 3072 3072 3073 3073 3073 3074 3074 3076 3077 3078 3080 3081 3082 3083 3085 3086 3088 3090 3092 3094 3096 3097 3099 3101 3102 3104 3105 3107 3108 3109 3110 3112 3113 3115 3117 3118 3120 3121 3122 3123 3124 3124 3125 3125 3126 3126 3126 3126 3126 3125
3032 3034 3034 3035 3036 3037 3036 3037 3037 3037 3038 3040 3042 3043 3044 3046 3047 3048 3050 3051 3052 3053 3054 3054 3055 3056 3058 3059 3060 3061 3063 3064 3066 3067 3068 3069 3070 3070 3071 3071 3072 3072 3072 3073 3075 3076 3077 3078 3079 3081 3083 3085 3087 3088 3090 3092 3094 3095 3097 3099 3101 3102 3104 3105 3106 3107 3109 3110 3112 3114 3115 3117 3119 3120 3121 3122 3123 3123 3124 3125 3125 3125 3125 3125 3125 3125
3031 3031 3032 3032 3034 3035 3034 3034 3035 3036 3038 3039 3040 3041 3043 3045 3046 3048 3049 3050 3051 3052 3053 3053 3054 3055 3056 3058 3059 3060 3062 3063 3064 3065 3066 3067 3067 3068 3069 3069 3069 3070 3070 3071 3072 3074 3075 3075 3077 3079 3081 3083 3084 3086 3088 3090 3092 3094 3096 3097 3099 3101 3102 3103 3104 3106 3107 3109 3111 3113 3115 3116 3118 3119 3120 3121 3122 3122 3123 3124 3124 3124 3124 3124 3124 3124
3029 3030 3031 3032 3034 3034 3033 3033 3035 3037 3038 3039 3040 3041 3042 3044 3045 3047 3048 3049 3050 3051 3052 3052 3053 3054 3055 3056 3058 3059 3060 3061 3062 3063 3064 3065 3065 3066 3067 3067 3067 3067 3068 3068 3070 3071 3072 3073 3075 3077 3079 3080 3082 3084 3086 3088 3090 3092 3094 3096 3098 3099 3100 3101 3103 3105 3106 3108 3110 3112 3114 3115 3117 3118 3119 3120 3121 3122 3122 3123 3123 3124 3124 3124 3123 3123
3028 3029 3031 3032 3033 3034 3033 3034 3035 3036 3037 3038 3039 3041 3041 3042 3044 3045 3046 3047 3048 3050 3050 3051 3052 3053 3054 3055 3056 3057 3059 3060 3061 3061 3062 3063 3063 3063 3064 3064 3064 3065 3066 3066 3067 3068 3069 3071 3073 3075 3077 3079 3080 3082 3084 3086 3088 3090 3092 3094 3096 3097 3098 3100 3102 3104 3106 3107 3109 3111 3113 3114 3116 3117 3118 3119 3120 3121 3121 3122 3123 3123 3123 3123 3122 3121
3027 3028 3030 3031 3032 3033 3033 3033 3033 3034 3035 3036 3038 3039 3040 3041 3042 3043 3044 3046 3047 3048 3049 3050 3051 3052 3053 3054 3055 3056 3057 3058 3059 3059 3060 3060 3060 3060 3061 3061 3062 3063 3063 3064 3065 3065 3066 3069 3072 3073 3074 3077 3079 3081 3083 3085 3087 3089 3091 3093 3094 3095 3097 3099 3101 3103 3105 3107 3109 3110 3112 3113 3114 3116 3117 3118 3119 3120 3121 3121 3122 3122 3122 3121 3121 3121
3026 3028 3029 3030 3031 3032 3033 3033 3032 3033 3034 3035 3035 3037 3037 3039 3040 3041 3042 3043 3045 3046 3047 3048 3049 3050 3051 3052 3053 3054 3055 3056 3056 3057 3057 3057 3057 3057 3057 3058 3059 3060 3060 3061 3062 3063 3065 3067 3070 3071 3073 3076 3077 3079 3081 3083 3085 3087 3089 3091 3092 3094 3096 3098 3100 3101 3104 3106 3108 3109 3111 3112 3113 3115 3116 3117 3118 3119 3120 3120 3121 3121 3120 3120 3120 3120
3026 3028 3029 3029 3030 3030 3031 3031 3032 3033 3033 3033 3034 3034 3035 3037 3038 3039 3040 3041 3042 3043 3045 3046 3047 3048 3049 3050 3051 3051 3052 3053 3053 3054 3054 3054 3054 3055 3054 3055 3056 3057 3057 3059 3061 3061 3063 3066 3068 3070 3072 3074 3076 3078 3079 3081 3083 3085 3087 3089 3090 3093 3095 3096 3098 3100 3102 3104 3106 3108 3110 3111 3112 3114 3115 3116 3117 3118 3119 3119 3119 3119 3119 3119 3119 3119
3025 3027 3027 3027 3028 3028 3028 3029 3030 3031 3031 3031 3032 3033 3034 3035 3036 3037 3038 3039 3040 3041 3042 3043 3045 3046 3046 3047 3048 3049 3049 3050 3050 3050 3051 3051 3051 3051 3051 3052 3053 3054 3054 3057 3058 3059 3061 3063 3066 3068 3070 3072 3074 3076 3077 3079 3082 3083 3085 3087 3089 3091 3093 3095 3097 3099 3101 3103 3105 3107 3108 3110 3111 3113 3114 3115 3116 3117 3118 3118 3118 3118 3118 3118 3118 3118